CW0041 Weather Reports


time (UTC)temp
C
wind
direction
speed
KPH
gust
KPH
rain 1hr
cm
rain 24hr
cm
rain mn
cm
humidity
%
barometer
mb
20260510051653 20 336 0.0 0.0 0.03 2.16 0.03 89 1014.1
20260510051601 20 278 0.0 0.0 0.03 2.16 0.03 90 1013.2
20260510050655 20 336 0.0 1.6 0.03 2.16 0.03 89 1014.4
20260510050146 20 336 0.0 1.6 0.03 2.16 0.03 89 1014.5
20260510050052 20 278 0.0 1.6 0.03 2.16 0.03 90 1013.7
20260510045638 20 336 0.0 0.0 0.03 2.16 0.03 89 1014.6
20260510044633 20 336 0.0 0.0 0.00 2.13 0.00 89 1014.2
20260510044600 20 278 0.0 0.0 0.00 2.13 0.00 90 1013.4
20260510044133 20 336 0.0 0.0 0.00 2.13 0.00 89 1014.3
20260510043626 20 336 0.0 1.6 0.00 2.13 0.00 89 1014.2
20260510043114 20 336 0.0 1.6 0.03 2.13 0.00 89 1014.3
20260510043048 20 278 0.0 1.6 0.03 2.13 0.00 90 1013.5
20260510042609 20 336 0.0 3.2 0.03 2.13 0.00 89 1014.4
20260510041547 20 278 0.0 0.0 0.03 2.13 0.00 90 1013.4
20260510041103 20 336 0.0 0.0 0.03 2.13 0.00 89 1014.2
20260510040605 20 336 0.0 0.0 0.03 2.13 0.00 89 1014.2
20260510040050 20 278 0.0 0.0 0.03 2.13 0.00 90 1013.4
20260510035550 20 336 0.0 0.0 0.03 2.13 2.13 89 1014.2
20260510035050 20 336 0.0 0.0 0.03 2.13 2.13 89 1014.2
20260510034548 20 336 0.0 0.0 0.03 2.13 2.13 88 1014.2
20260510034545 20 278 0.0 0.0 0.03 2.13 2.13 89 1013.4
20260510033541 20 336 0.0 0.0 0.00 2.11 2.11 88 1014.2
20260510033044 20 278 0.0 0.0 0.00 2.11 2.11 89 1013.4
20260510032539 20 336 0.0 0.0 0.00 2.11 2.11 88 1014.4
20260510032033 20 336 0.0 1.6 0.00 2.11 2.11 88 1014.3
20260510031544 20 278 0.0 3.2 0.00 2.11 2.11 89 1013.3
20260510031534 20 336 1.6 3.2 0.00 2.11 2.11 88 1014.1
20260510031035 20 336 1.6 3.2 0.00 2.11 2.11 88 1014.1
20260510030532 20 336 0.0 0.0 0.00 2.11 2.11 88 1014.0
20260510030052 20 278 0.0 0.0 0.00 2.11 2.11 89 1013.2
20260510030032 20 336 0.0 0.0 0.00 2.11 2.11 88 1014.0
20260510025532 20 336 0.0 0.0 0.00 2.11 2.11 88 1013.9
20260510024543 20 278 0.0 0.0 0.00 2.11 2.11 89 1012.9
20260510024530 20 336 0.0 0.0 0.00 2.11 2.11 88 1013.7
20260510024033 20 336 0.0 0.0 0.00 2.11 2.11 88 1013.7
20260510023527 20 336 0.0 0.0 0.00 2.11 2.11 88 1013.7
20260510023042 20 278 0.0 1.6 0.00 2.11 2.11 89 1012.8
20260510023027 20 336 0.0 4.8 0.00 2.11 2.11 88 1013.6
20260510022025 20 336 1.6 4.8 0.00 2.11 2.11 88 1013.6
20260510021543 20 277 0.0 3.2 0.00 2.11 2.11 89 1012.7
20260510021525 20 335 0.0 3.2 0.00 2.11 2.11 88 1013.5
20260510020526 20 335 1.6 3.2 0.00 2.11 2.11 88 1013.4
20260510020044 20 276 0.0 3.2 0.00 2.11 2.11 89 1012.5
20260510020025 20 334 0.0 3.2 0.00 2.11 2.11 88 1013.4
20260510015529 20 334 0.0 3.2 0.00 2.13 2.11 88 1013.5
20260510015020 20 334 0.0 0.0 0.00 2.16 2.11 88 1013.6
20260510014541 20 276 0.0 0.0 0.00 2.24 2.11 89 1012.6
20260510014512 20 334 0.0 0.0 0.00 2.18 2.11 88 1013.4
20260510014003 20 334 0.0 3.2 0.00 2.21 2.11 88 1013.4
20260510013040 20 276 0.0 0.0 0.00 2.24 2.11 89 1012.7
20260510013001 20 334 0.0 0.0 0.00 2.24 2.11 88 1013.5
20260510012503 21 334 0.0 0.0 0.00 2.24 2.11 88 1013.4
20260510012005 21 334 0.0 0.0 0.00 2.24 2.11 88 1013.3
20260510011546 20 276 0.0 0.0 0.00 2.24 2.11 89 1012.5
20260510011457 21 334 0.0 1.6 0.03 2.24 2.11 88 1013.2
20260510010950 21 334 0.0 1.6 0.03 2.24 2.11 88 1013.2
20260510010454 21 334 0.0 1.6 0.05 2.24 2.11 88 1013.1
20260510010040 20 276 0.0 1.6 0.05 2.24 2.11 89 1012.4
20260510005944 21 334 0.0 1.6 0.05 2.24 2.11 88 1013.2
20260510005433 21 334 0.0 0.0 0.08 2.24 2.11 88 1013.2
20260510004921 21 334 0.0 3.2 0.08 2.24 2.11 88 1013.2
20260510004539 21 276 0.0 3.2 0.08 2.24 2.11 89 1012.3
20260510004415 21 334 1.6 4.8 0.08 2.24 2.11 88 1013.2
20260510003915 21 334 1.6 4.8 0.08 2.24 2.11 88 1013.1
20260510003416 21 145 0.0 3.2 0.08 2.24 2.11 88 1012.8
20260510003042 21 87 0.0 3.2 0.08 2.24 2.11 89 1012.1
20260510002913 21 145 0.0 3.2 0.08 2.24 2.11 88 1013.0
20260510002429 21 145 0.0 3.2 0.08 2.24 2.11 88 1013.0
20260510001538 21 87 0.0 3.2 0.08 2.24 2.11 89 1012.0
20260510001401 21 145 0.0 3.2 0.05 2.21 2.08 88 1012.8
20260510000915 21 145 0.0 1.6 0.05 2.21 2.08 88 1012.9
20260510000042 21 87 0.0 4.8 0.03 2.18 2.06 89 1012.1
20260509235348 21 144 1.6 4.8 0.00 2.16 2.03 88 1013.0
20260509234839 21 164 0.0 4.8 0.00 2.16 2.03 87 1013.4
20260509234541 21 106 1.6 4.8 0.00 2.16 2.03 89 1012.4
20260509234333 21 201 0.0 0.0 0.00 2.16 2.03 87 1013.1
20260509233822 21 201 0.0 0.0 0.00 2.16 2.03 87 1012.8
20260509233038 21 143 0.0 3.2 0.00 2.16 2.03 88 1011.7
20260509232809 21 201 0.0 4.8 0.00 2.16 2.03 87 1012.6
20260509232259 21 201 1.6 4.8 0.00 2.16 2.03 87 1012.6
20260509231758 21 207 1.6 4.8 0.00 2.16 2.03 87 1012.6
20260509231541 21 149 0.0 4.8 0.00 2.16 2.03 88 1011.9
20260509231300 21 207 1.6 4.8 0.00 2.16 2.03 87 1012.8
20260509230756 21 210 1.6 4.8 0.00 2.16 2.03 87 1012.6
20260509230257 21 222 0.0 0.0 0.00 2.16 2.03 87 1012.5
20260509230035 21 167 0.0 0.0 0.00 2.16 2.03 88 1011.8
20260509225757 21 225 0.0 3.2 0.00 2.16 2.03 87 1012.6
20260509224534 21 164 0.0 1.6 0.00 2.16 2.03 88 1011.3
20260509224237 21 222 0.0 3.2 0.00 2.16 2.03 87 1012.3
20260509223732 21 222 0.0 3.2 0.00 2.16 2.03 87 1012.1
20260509223035 21 164 0.0 4.8 0.00 2.16 2.03 88 1011.2
20260509222715 21 222 0.0 4.8 0.00 2.16 2.03 87 1012.2
20260509222214 21 225 0.0 0.0 0.00 2.16 2.03 87 1012.1
20260509221716 21 225 0.0 1.6 0.00 2.16 2.03 87 1012.1
20260509221533 21 167 0.0 1.6 0.00 2.16 2.03 88 1011.5
20260509221209 21 225 0.0 1.6 0.00 2.16 2.03 87 1012.4
20260509220657 21 225 0.0 1.6 0.00 2.16 2.03 87 1012.4
20260509220149 21 225 0.0 1.6 0.00 2.16 2.03 87 1012.5
20260509220031 21 167 0.0 1.6 0.00 2.16 2.03 88 1011.7
20260509215646 21 225 0.0 0.0 0.00 2.16 2.03 87 1012.5
20260509215148 21 225 0.0 1.6 0.00 2.16 2.03 87 1012.5
20260509214649 21 225 1.6 6.4 0.00 2.16 2.03 87 1012.3
20260509214529 21 167 0.0 8.0 0.00 2.16 2.03 88 1011.4
20260509214150 21 224 1.6 6.4 0.00 2.16 2.03 87 1012.1
20260509213649 21 207 1.6 4.8 0.00 2.16 2.03 87 1012.0
20260509213150 21 199 0.0 3.2 0.00 2.16 2.03 87 1012.0
20260509213030 21 137 0.0 3.2 0.00 2.16 2.03 88 1011.2
20260509212650 21 195 1.6 6.4 0.00 2.16 2.03 87 1012.1
20260509211642 21 190 3.2 8.0 0.03 2.16 2.03 87 1012.1
20260509211529 21 133 1.6 8.0 0.03 2.16 2.03 88 1011.4
20260509211129 21 208 3.2 8.0 0.03 2.16 2.03 87 1012.4
20260509210622 21 195 1.6 6.4 0.03 2.16 2.03 87 1012.5
20260509210124 21 93 1.6 4.8 0.03 2.16 2.03 87 1012.5
20260509210029 21 35 0.0 4.8 0.03 2.16 2.03 88 1011.6
20260509205114 21 211 3.2 4.8 0.05 2.16 2.03 87 1012.5
20260509204528 21 156 1.6 6.4 0.08 2.16 2.03 87 1011.8
20260509204114 21 257 0.0 6.4 0.08 2.16 2.03 87 1012.6
20260509203612 21 313 0.0 3.2 0.10 2.16 2.03 87 1012.6
20260509203115 21 313 0.0 3.2 0.10 2.16 2.03 86 1012.7
20260509203037 21 255 0.0 3.2 0.13 2.16 2.03 87 1011.8
20260509202609 21 334 0.0 1.6 0.13 2.16 2.03 86 1012.8
20260509202059 21 334 0.0 1.6 0.13 2.16 2.03 86 1012.9
20260509201552 21 336 0.0 4.8 0.10 2.13 2.01 86 1012.9
20260509201528 21 278 0.0 1.6 0.10 2.13 2.01 87 1012.1
20260509201050 21 336 0.0 4.8 0.10 2.13 2.01 86 1013.0
20260509200027 21 278 0.0 6.4 0.10 2.13 2.01 87 1012.3
20260509195049 21 331 0.0 1.6 0.08 2.11 1.98 86 1013.2
20260509194546 21 331 0.0 1.6 0.05 2.08 1.96 86 1013.3
20260509194528 21 273 0.0 1.6 0.05 2.08 1.96 87 1012.5
20260509194045 21 331 0.0 1.6 0.05 2.08 1.96 86 1013.4
20260509193547 21 331 0.0 3.2 0.03 2.06 1.93 86 1013.4
20260509193046 21 331 1.6 4.8 0.00 2.03 1.91 86 1013.4
20260509193026 21 273 0.0 4.8 0.00 2.03 1.91 87 1012.6
20260509192543 21 330 3.2 9.7 0.03 2.03 1.91 86 1013.5
20260509192047 21 338 1.6 9.7 0.03 2.03 1.91 86 1013.4
20260509191542 21 353 1.6 4.8 0.03 2.03 1.91 85 1013.3
20260509191525 21 295 0.0 4.8 0.03 2.03 1.91 86 1012.4
20260509191041 21 353 3.2 8.0 0.03 2.03 1.91 85 1013.2
20260509190542 21 358 4.8 9.7 0.08 2.03 1.91 85 1013.0
20260509190039 21 355 4.8 9.7 0.20 2.03 1.91 85 1013.0
20260509190027 21 296 3.2 11.3 0.15 2.03 1.91 86 1012.2
20260509185533 21 3 4.8 11.3 0.41 2.03 1.91 85 1013.0
20260509185023 21 330 8.0 16.1 1.19 2.03 1.91 85 1012.9
20260509184525 21 299 6.4 17.7 1.75 2.03 1.91 86 1012.2
20260509184026 21 299 4.8 11.3 1.80 2.03 1.91 84 1013.0
20260509183024 21 307 1.6 12.9 1.83 2.03 1.91 85 1012.2
20260509182513 21 357 8.0 14.5 1.85 2.01 1.88 84 1013.1
20260509182014 21 333 8.0 19.3 1.85 2.01 1.88 84 1013.2
20260509181524 21 295 9.7 20.9 1.85 2.01 1.88 84 1012.2
20260509181509 22 3 8.0 19.3 1.85 2.01 1.88 83 1013.1
20260509181010 22 310 9.7 17.7 1.83 1.98 1.85 83 1013.0
20260509180503 22 341 11.3 20.9 1.80 1.96 1.83 82 1013.0
20260509180024 22 301 12.9 29.0 1.70 1.85 1.73 82 1012.1
20260509175955 22 349 14.5 27.4 1.63 1.78 1.70 81 1013.0
20260509175457 23 351 16.1 27.4 1.32 1.47 1.45 80 1013.1
20260509174956 23 349 11.3 27.4 0.41 0.56 0.64 78 1012.9
20260509174502 24 315 12.9 20.9 0.10 0.25 0.13 78 1011.9
20260509174500 24 15 8.0 19.3 0.10 0.25 0.13 77 1012.7
20260509173955 25 48 6.4 14.5 0.08 0.23 0.10 75 1012.6
20260509173455 26 359 6.4 14.5 0.08 0.23 0.10 74 1012.6
20260509173001 26 316 4.8 12.9 0.03 0.18 0.05 73 1011.8
20260509172956 26 4 4.8 11.3 0.00 0.15 0.05 72 1012.7
20260509171503 27 277 1.6 8.0 0.00 0.15 0.03 71 1012.0
20260509171437 27 336 3.2 11.3 0.00 0.15 0.03 70 1012.9
20260509170940 27 340 3.2 11.3 0.00 0.15 0.03 69 1012.9
20260509170435 27 349 1.6 6.4 0.00 0.15 0.03 70 1012.9
20260509170001 27 130 0.0 4.8 0.00 0.15 0.03 71 1012.0
20260509165935 27 188 3.2 4.8 0.00 0.15 0.03 70 1012.8
20260509164932 27 120 3.2 9.7 0.00 0.15 0.03 69 1012.9
20260509164606 27 295 4.8 9.7 0.00 0.15 0.03 69 1012.1
20260509164425 27 2 3.2 8.0 0.00 0.15 0.03 69 1012.9
20260509163922 28 353 3.2 8.0 0.00 0.15 0.03 69 1013.0
20260509163427 27 210 3.2 11.3 0.00 0.15 0.03 69 1013.1
20260509163058 27 287 3.2 12.9 0.00 0.15 0.03 70 1012.3
20260509162421 27 182 1.6 6.4 0.00 0.15 0.03 70 1013.2
20260509161922 27 203 3.2 9.7 0.00 0.15 0.03 70 1013.3
20260509161557 27 150 1.6 9.7 0.00 0.15 0.03 72 1012.4
20260509161419 27 351 3.2 9.7 0.00 0.15 0.03 70 1013.2
20260509160918 27 202 3.2 8.0 0.00 0.15 0.03 70 1013.0
20260509160420 27 178 4.8 12.9 0.00 0.15 0.03 72 1012.8
20260509160052 26 148 6.4 12.9 0.00 0.15 0.03 73 1012.0
20260509155919 26 247 3.2 12.9 0.00 0.15 0.03 73 1012.9
20260509155417 26 244 1.6 11.3 0.00 0.15 0.03 75 1012.9
20260509154548 25 176 1.6 8.0 0.00 0.15 0.03 79 1012.2
20260509154414 25 334 3.2 9.7 0.00 0.15 0.03 78 1013.1
20260509153914 24 338 4.8 12.9 0.00 0.15 0.03 79 1013.3
20260509153415 24 282 3.2 12.9 0.00 0.15 0.03 80 1013.2
20260509153058 23 305 3.2 11.3 0.00 0.15 0.03 82 1012.4
20260509152912 24 352 3.2 6.4 0.00 0.15 0.03 82 1013.3
20260509152412 23 41 3.2 8.0 0.00 0.15 0.03 84 1013.4
20260509151543 22 301 1.6 6.4 0.00 0.15 0.03 86 1012.7
20260509151412 23 358 3.2 6.4 0.00 0.15 0.03 85 1013.6
20260509150902 22 338 1.6 6.4 0.00 0.15 0.03 86 1013.5
20260509150036 22 293 1.6 4.8 0.00 0.15 0.03 88 1012.8
20260509145846 22 350 1.6 4.8 0.00 0.15 0.03 88 1013.7
20260509145345 22 345 1.6 6.4 0.00 0.15 0.03 88 1013.8
20260509144844 21 346 1.6 6.4 0.00 0.15 0.03 88 1014.0
20260509144533 21 285 1.6 6.4 0.00 0.15 0.03 89 1013.2
20260509144348 21 344 0.0 4.8 0.00 0.15 0.03 88 1014.0
20260509143839 21 343 1.6 4.8 0.00 0.15 0.03 88 1014.0
20260509143327 21 343 1.6 6.4 0.00 0.15 0.03 88 1014.2
20260509143031 21 284 0.0 6.4 0.00 0.15 0.03 89 1013.5
20260509142822 21 341 1.6 6.4 0.00 0.15 0.03 88 1014.4
20260509142322 21 348 1.6 4.8 0.00 0.15 0.03 88 1014.2
20260509141531 21 290 0.0 1.6 0.00 0.15 0.03 90 1013.1
20260509141309 21 348 0.0 1.6 0.00 0.15 0.03 89 1013.9
20260509140810 21 348 0.0 0.0 0.00 0.15 0.03 89 1014.0
20260509140308 21 348 0.0 4.8 0.00 0.15 0.03 89 1013.9
20260509140026 21 290 0.0 4.8 0.00 0.15 0.03 90 1013.1
20260509135755 21 348 1.6 6.4 0.00 0.15 0.03 89 1013.9
20260509135250 21 347 3.2 6.4 0.00 0.15 0.03 89 1013.9
20260509134746 21 346 3.2 6.4 0.00 0.15 0.03 89 1013.9
20260509134526 21 291 3.2 6.4 0.00 0.15 0.03 90 1013.0
20260509134247 21 347 3.2 6.4 0.00 0.15 0.03 89 1013.7
20260509133741 21 345 3.2 4.8 0.00 0.15 0.03 89 1013.7
20260509133232 21 346 3.2 4.8 0.00 0.15 0.03 89 1013.6
20260509133024 21 287 1.6 4.8 0.00 0.15 0.03 90 1012.9
20260509131745 21 345 1.6 4.8 0.00 0.15 0.03 89 1013.6
20260509131522 21 287 1.6 4.8 0.00 0.15 0.03 90 1012.8
20260509131219 21 349 0.0 4.8 0.00 0.15 0.03 89 1013.5
20260509130710 21 349 0.0 0.0 0.00 0.15 0.03 89 1013.5
20260509130223 21 349 0.0 0.0 0.00 0.15 0.03 89 1013.4
20260509130021 20 291 0.0 0.0 0.00 0.15 0.03 90 1012.6
20260509125711 20 349 0.0 0.0 0.00 0.15 0.03 89 1013.3
20260509125210 20 349 0.0 0.0 0.00 0.15 0.03 89 1013.3
20260509124659 20 348 0.0 0.0 0.00 0.15 0.03 89 1013.1
20260509124518 20 290 0.0 0.0 0.00 0.15 0.03 90 1012.3
20260509124148 20 347 0.0 0.0 0.00 0.15 0.03 89 1013.2
20260509123647 20 347 0.0 0.0 0.00 0.15 0.03 89 1013.2
20260509123149 20 347 0.0 0.0 0.00 0.15 0.03 88 1013.1
20260509123018 20 289 0.0 0.0 0.00 0.15 0.03 89 1012.2
20260509122648 20 347 0.0 0.0 0.00 0.15 0.03 88 1013.1
20260509122145 20 347 0.0 0.0 0.00 0.15 0.03 88 1013.0
20260509121649 20 347 0.0 0.0 0.00 0.15 0.03 88 1013.1
20260509121514 20 289 0.0 0.0 0.00 0.15 0.03 89 1012.2
20260509121143 20 347 0.0 0.0 0.00 0.15 0.03 88 1013.1
20260509120644 20 347 0.0 1.6 0.00 0.15 0.03 88 1013.1
20260509120144 20 347 0.0 1.6 0.00 0.15 0.03 88 1013.0
20260509120011 20 289 0.0 1.6 0.00 0.15 0.03 89 1012.2
20260509115141 20 347 0.0 3.2 0.00 0.15 0.03 88 1013.0
20260509114642 20 347 1.6 3.2 0.00 0.15 0.03 88 1012.9
20260509114507 20 289 0.0 3.2 0.00 0.15 0.03 89 1012.0
20260509113120 20 347 0.0 3.2 0.03 0.15 0.03 88 1012.7
20260509113006 19 289 0.0 3.2 0.03 0.15 0.03 89 1011.9
20260509112616 20 347 0.0 3.2 0.03 0.15 0.03 88 1012.8
20260509112105 19 347 0.0 1.6 0.03 0.15 0.03 88 1012.7
20260509111555 19 347 0.0 0.0 0.03 0.15 0.03 88 1012.6
20260509111503 19 289 0.0 0.0 0.03 0.15 0.03 89 1011.8
20260509111045 19 347 0.0 0.0 0.03 0.15 0.03 88 1012.6
20260509110532 19 347 0.0 0.0 0.03 0.15 0.03 88 1012.7
20260509110002 19 289 0.0 0.0 0.03 0.15 0.03 89 1011.7
20260509105516 19 347 1.6 4.8 0.03 0.15 0.03 88 1012.5
20260509105001 19 347 1.6 4.8 0.03 0.15 0.03 88 1012.4
20260509104600 19 289 3.2 4.8 0.03 0.15 0.03 88 1011.5
20260509104457 19 347 1.6 4.8 0.03 0.15 0.03 88 1012.2
20260509103957 19 347 0.0 1.6 0.03 0.15 0.03 87 1011.9
20260509103455 19 347 0.0 1.6 0.03 0.15 0.03 88 1011.9
20260509103103 19 289 0.0 0.0 0.00 0.13 0.00 89 1011.1
20260509102956 19 347 0.0 1.6 0.00 0.13 0.00 88 1011.9
20260509101954 19 347 0.0 1.6 0.00 0.13 0.00 88 1011.6
20260509101602 19 289 0.0 0.0 0.00 0.13 0.00 89 1010.8
20260509101445 19 347 0.0 3.2 0.00 0.13 0.00 88 1011.6
20260509100937 20 347 0.0 3.2 0.00 0.13 0.00 88 1011.6
20260509100058 19 290 0.0 1.6 0.00 0.13 0.00 88 1010.8
20260509095936 20 348 0.0 1.6 0.00 0.13 0.00 87 1011.6
20260509095432 20 348 0.0 0.0 0.00 0.13 0.00 87 1011.8
20260509094925 20 348 0.0 1.6 0.00 0.13 0.00 87 1011.8
20260509094600 19 290 0.0 1.6 0.00 0.13 0.00 89 1011.2
20260509093926 20 348 1.6 6.4 0.00 0.13 0.00 88 1012.2
20260509093421 20 348 3.2 8.0 0.00 0.13 0.00 88 1012.3
20260509093059 20 300 3.2 8.0 0.00 0.13 0.00 88 1011.6
20260509092921 20 358 3.2 8.0 0.00 0.13 0.00 87 1012.5
20260509091918 20 359 4.8 8.0 0.00 0.13 0.00 87 1012.4
20260509091627 20 292 4.8 8.0 0.00 0.13 0.00 88 1011.5
20260509091432 20 359 3.2 8.0 0.00 0.13 0.00 87 1012.3
20260509090920 20 350 4.8 11.3 0.00 0.13 0.00 87 1012.2
20260509090057 20 332 4.8 12.9 0.00 0.13 0.00 88 1011.5
20260509085917 20 358 4.8 12.9 0.00 0.13 0.00 87 1012.3
20260509084915 20 355 6.4 14.5 0.00 0.13 0.00 87 1012.2
20260509084555 20 287 6.4 16.1 0.00 0.13 0.00 88 1011.3
20260509083916 20 355 4.8 9.7 0.00 0.13 0.00 87 1011.8
20260509083056 20 312 0.0 3.2 0.00 0.13 0.00 88 1010.5
20260509082912 20 10 0.0 8.0 0.00 0.13 0.00 87 1011.4
20260509082415 20 10 1.6 8.0 0.00 0.13 0.00 87 1011.5
20260509081912 20 10 3.2 9.7 0.00 0.13 0.00 87 1011.6
20260509081555 20 311 1.6 11.3 0.00 0.13 0.00 88 1010.7
20260509081401 20 5 4.8 9.7 0.00 0.13 0.00 87 1011.6
20260509080851 20 347 1.6 8.0 0.00 0.13 0.00 87 1011.6
20260509080106 20 138 0.0 4.8 0.00 0.13 0.00 88 1010.2
20260509075843 20 191 0.0 4.8 0.00 0.13 0.00 87 1011.0
20260509075346 20 191 1.6 4.8 0.00 0.13 0.00 87 1011.1
20260509074840 20 183 1.6 4.8 0.00 0.13 0.00 87 1011.1
20260509074554 20 143 0.0 8.0 0.00 0.13 0.00 88 1010.4
20260509074340 20 201 3.2 9.7 0.00 0.13 0.00 87 1011.4
20260509073342 20 202 0.0 6.4 0.00 0.13 0.00 87 1011.3
20260509073116 20 137 0.0 3.2 0.00 0.13 0.00 88 1010.7
20260509072839 20 195 0.0 1.6 0.00 0.13 0.00 87 1011.6
20260509072330 20 195 0.0 1.6 0.00 0.13 0.00 87 1011.8
20260509071816 20 195 0.0 1.6 0.00 0.13 0.00 87 1011.9
20260509071547 20 137 0.0 0.0 0.00 0.13 0.00 88 1011.1
20260509071310 20 195 0.0 0.0 0.00 0.13 0.00 87 1012.0
20260509070812 20 195 0.0 3.2 0.00 0.13 0.00 87 1012.0
20260509070303 20 195 1.6 6.4 0.00 0.13 0.00 87 1012.1
20260509070048 20 137 0.0 8.0 0.00 0.13 0.00 88 1011.4
20260509065752 20 195 3.2 8.0 0.00 0.13 0.00 87 1012.2
20260509065244 20 232 3.2 8.0 0.00 0.13 0.00 86 1012.2
20260509064733 20 198 1.6 4.8 0.00 0.13 0.00 86 1012.5
20260509064544 20 130 1.6 4.8 0.00 0.13 0.00 87 1011.7
20260509063724 20 172 0.0 4.8 0.00 0.13 0.00 86 1012.6
20260509063044 20 4 0.0 3.2 0.00 0.13 0.00 87 1011.6
20260509062721 20 62 0.0 1.6 0.00 0.13 0.00 86 1012.3
20260509062213 20 62 0.0 1.6 0.00 0.13 0.00 86 1012.3
20260509061704 20 62 0.0 1.6 0.00 0.13 0.00 86 1012.5
20260509061541 20 4 0.0 1.6 0.00 0.13 0.00 87 1011.8
20260509061202 20 62 0.0 1.6 0.00 0.13 0.00 86 1012.8
20260509060706 20 62 0.0 0.0 0.00 0.13 0.00 86 1013.0
20260509060159 20 62 0.0 3.2 0.00 0.13 0.00 86 1013.1
20260509060047 20 4 0.0 3.2 0.00 0.13 0.00 87 1012.2
20260509055700 20 62 0.0 3.2 0.00 0.13 0.00 86 1013.1
20260509055200 20 62 0.0 1.6 0.00 0.13 0.00 86 1013.2
20260509054657 20 62 1.6 3.2 0.00 0.13 0.00 86 1013.5
20260509054538 20 4 0.0 3.2 0.00 0.13 0.00 87 1012.8
20260509054158 20 62 1.6 3.2 0.00 0.13 0.00 86 1013.6
20260509053659 20 62 1.6 4.8 0.00 0.13 0.00 86 1013.7
20260509053158 20 62 1.6 4.8 0.00 0.13 0.00 86 1013.5
20260509053037 20 4 1.6 4.8 0.00 0.13 0.00 87 1012.7
20260509052657 20 139 0.0 1.6 0.00 0.13 0.00 85 1013.5